Погода в Костроме

Погода в Костроме : погода сейчас, прогноз погоды и архив. Всё, что Вы хотите узнать о погоде в Костроме!

Хотите узнать прогноз погоды в Костроме? Тогда Вам сюда: Погода в Костроме

Поиск расширенной информации на нашем сайте:

Другие новости

Новости СМИ2

Главная страница сайта

Новости сайта

03.07.2017

Напоминаем, что на нашем специализированном сайте Метеоцентр.Азия вы можете получить высокодетализированные автоматические прогнозы погоды по пунктам России, СНГ и мира в авиационном формате (включающие направление и скорость ветра, видимость, явления погоды, количество и форму облачности, нижнюю и верхнюю границу облачности).


Погода в Костроме - сегодня

Время (UTC), дата Ветер
(°,м/с) 
Видим.   Явления Облачность Т
(°С)
Тd
(°С)
f(%) Тe
(°С)
Pmin
(гПа)
dP
(гПа)
Po
(мм)
O2
(г/м3)
Тmin Tmax R s Состояние
почвы
00 16.06.18 260 (З) 30000 м    3/0 средняя 
[Ac As]
+7.2 +4.8 85 +8  1021.1  0.3  754  295           
03 16.06.18 350 (С) 30000 м    3/0 верхняя 
[Cc]
+12.9 +6.7 66 +14  1021.7  0.9  755  289  +7.1        влажная 
06 16.06.18 030 (СВ) 30000 м    3/0 верхняя 
[Ci fib]
+18 +9.8 59 +20  1021.8  0.4  755  284           
09 16.06.18 360 (С) 30000 м    3/3 600 м верхняя 
[Cu hum|Ci fib]
+20.2 +6 39 +20  1021.2  -0.5  755  282           
12 16.06.18 300 (СЗ) 30000 м    4/4 600 м 
[Cu hum]
+22 +8.2 41 +22  1020.3  -0.8  754  280           
18 16.06.18 270 (З) 30000 м    8/6 600 м средняя, верхняя 
[Cu med, cong|Ac cast|Ci fib]
+15.4 +10.4 72 +18  1019.7  0.1  753  285           
21 16.06.18 290 (З) 50000 м    4/0 средняя 
[Ac cast]
+17.1 +8.7 58 +18  1020.2  0.6  754  284           
00 17.06.18 240 (ЮЗ) 30000 м    5/0 средняя, верхняя 
[Ac lent|Ci fib]
+9.7 +8.2 90 +11  1020.9  0.3  754  292           
03 17.06.18 300 (СЗ) 30000 м    8/0 средняя, верхняя 
[Ac lent|Ci fib]
+15.1 +9.1 67 +16  1020.8  0.2  754  286  +9.2        влажная 
06 17.06.18 350 (С) 30000 м    10/0 средняя 
[Ac und]
+20.2 +11.9 59 +24  1020.1  -0.5  754  281           
09 17.06.18 320 (СЗ) 30000 м    8/3 600 м средняя, верхняя 
[Cu med, cong|Ac trans|Ci fib]
+23.8 +12.2 48 +28  1019.4  -0.5  754  277           
12 17.06.18 040 (СВ) 30000 м    6/3 600 м верхняя 
[Cu med, cong|Ci fib]
+25.1 +10.6 40 +27  1018.2  -1.1  753  276           
18 17.06.18 340 (С) 30000 м    8/0 средняя 
[Ac trans]
+20.1 +12.7 62 +25  1017.7  -0.3  752  280           
21 17.06.18 310 (СЗ) 50000 м    6/0 средняя 
[Ac trans]
+15.7 +13.4 86 +23  1017.8  0.1  752  284           
00 18.06.18 310 (СЗ) 30000 м    8/0 средняя 
[Ac trans]
+15.4 +11.6 78 +20  1017.8  752  285           
03 18.06.18 290 (З) 30000 м    4/0 средняя 
[Ac trans]
+15.3 +12 81 +21  1017.4  -0.4  752  285  +12.3        влажная 
06 18.06.18 020 (С) 30000 м    3/0 средняя 
[Ac As]
+22.3 +14.5 61 +30  1016.6  -0.5  751  277           
09 18.06.18 030 (СВ) 30000 м    1/1 600 м верхняя 
[Cu med, cong|Ci fib]
+25.2 +12.7 46 +30  1015.9  -0.5  751  275           
12 18.06.18 010 (С) 30000 м    3/0 
[Cu hum]
+26.9 +10.4 36 +29  1014.9  -1  750  273           
18 18.06.18 160 (Ю) 30000 м    1/0 верхняя 
[Ci fib]
+20 +14 68 +27  1013.5  -0.3  749  278           
21 18.06.18 230 (ЮЗ) 30000 м    1/0 верхняя 
[Ci fib]
+15 +12.2 83 +20  1013.5  -0.3  749  283           
00 19.06.18 220 (ЮЗ) 30000 м    ясно 
+15 +12 82 +20  1013.2  -0.3  749  284           
03 19.06.18 220 (ЮЗ) 30000 м    1/0 верхняя 
[Ci fib]
+17.5 +14.5 83 +26  1012.4  -0.6  748  280  +12.3        влажная 
06 19.06.18 250 (З) 30000 м    ясно 
+24.2 +13.6 52 +31  1011.2  -0.8  748  274           
09 19.06.18 280 (З) 30000 м    10/8 600 м кучево-дожд., верхняя 
[Cb calv|Cs]
+24.6 +13 48 +30  1010.1  -1.1  747  273           
Время (UTC), дата Ветер
(°,м/с) 
Видим.   Явления Облачность Т
(°С)
Тd
(°С)
f(%) Тe
(°С)
Pmin
(гПа)
dP
(гПа)
Po
(мм)
O2
(г/м3)
Тmin Tmax R s Состояние
почвы

Для получения пояснительной информации подведите курсор к названию столбца.

ПОГОДА в Костроме - архив

Всё, что Вы хотите узнать о погоде в Костроме - удобно и подробно!

Выберите нужную дату (начиная с 1 января 2015* года) и нажмите кнопку "Найти".
Будут отображены архивные сводки погоды по пункту Кострома, начиная с указанной даты.


Отображать данные в формате CSV (для использования в таблицах Excel)


Внимание! Наш архив погоды предназначен исключительно для личного некоммерческого использования в познавательных целях. Если Вам необходимы официальные справки о состоянии погоды (для производственных, юридических, коммерческих и т.п. целей), обращайтесь в органы Росгидромета.

*Примечание: данная дата относится к архиву по метеостанциям СССР (Россия, СНГ, Балтия).
Архив по метеостанциям Зарубежной Европы и Азии (кроме Китая) хранится 10 дней, по другим регионам земного шара (Китай, Африка, Америка, Австралия, Океания) - 1 день.

Кострома - район местоположения метеостанции


Название, широта, долгота, высота метеостанции:
Кострома 57.7°ш. 40.8°д. 126 м над ур. моря [Российская Федерация]

Дополнительная информация

В oтличие oт бoльшинства пoгoдных сайтoв мы публикуем пoдрoбную метеoинфoрмацию в детальнoм прoфессиoнальнoм фoрмате.

Характеристики температуры и влажнoсти вoздуха измеряются на высoте 2 м в тени вдали oт зданий и деревьев.
Скoрoсть ветра измеряется на высoте 10 м (на урoвне рoста челoвека скoрoсть ветра ниже в 1.5-2 раза). Если метеoстанция нахoдится в гoрoде или в лесу, тo скoрoсть ветра занижена на 2-4 м/с пo сравнению с oткрытым местoм. Скoрoсть ветра над акватoриями крупных рек и oзёр, а также на вершинах хoлмoв на 2-5 м/с выше, чем в oбычных услoвиях.
Атмoсфернoе давление в разных тoчках местнoсти мoжет значительнo oтличаться oт давления на метеoстанции, в зависимoсти oт услoвий рельефа (при пoдъёме на 10 м давление пoнижается примернo на 1 мм рт.ст.).